OpenBCM V1.13 (Linux)

Packet Radio Mailbox

DB0FHN

[JN59NK Nuernberg]

 Login: GUEST





  
CX2SA  > KEPS     18.03.05 07:37l 151 Lines 3940 Bytes #999 (0) @ AMSAT
BID : ORB05076.O
Read: OE7HNT GUEST
Subj: Orbital Elements  05076.OSCAR
Path: DB0FHN<DB0RGB<DB0MRW<DB0WUE<DK0WUE<7M3TJZ<EA5AKC<CX2SA
Sent: 050318/0533Z @:CX2SA.LAV.URY.SA #:24362 [Minas] FBB7.00e $:ORB05076.O
From: CX2SA@CX2SA.LAV.URY.SA
To  : KEPS@AMSAT


HR AMSAT ORBITAL ELEMENTS FOR OSCAR SATELLITES
FROM WA5QGD FORT WORTH,TX March 17, 2005
SEND SUBSCRIBE/UNSUBSCRIBE TO majordomo@amsat.org ONLY
BID: ORB05076.O
TO ALL RADIO AMATEURS BT

Satellite: AO-07
Catalog number: 07530
Epoch time:      05075.73615150
Element set:    0406
Inclination:      101.6411 deg
RA of node:       123.7629 deg
Eccentricity:    0.0012203
Arg of perigee:   054.4374 deg
Mean anomaly:     305.7835 deg
Mean motion:   12.53570909 rev/day
Decay rate:       -2.8e-07 rev/day^2
Epoch rev:           38806
Checksum:              275

Satellite: AO-10
Catalog number: 14129
Epoch time:      05074.98743598
Element set:    0159
Inclination:      027.1530 deg
RA of node:       042.0560 deg
Eccentricity:    0.6034903
Arg of perigee:   173.1234 deg
Mean anomaly:     202.2694 deg
Mean motion:   02.05866975 rev/day
Decay rate:      -2.14e-06 rev/day^2
Epoch rev:           16361
Checksum:              291

Satellite: UO-11
Catalog number: 14781
Epoch time:      05075.94263646
Element set:    0736
Inclination:      098.2002 deg
RA of node:       071.6671 deg
Eccentricity:    0.0008149
Arg of perigee:   299.3963 deg
Mean anomaly:     060.6508 deg
Mean motion:   14.79185664 rev/day
Decay rate:       3.08e-06 rev/day^2
Epoch rev:           12816
Checksum:              323

Satellite: RS-10/11
Catalog number: 18129
Epoch time:      05075.67579322
Element set:    0640
Inclination:      082.9240 deg
RA of node:       306.5726 deg
Eccentricity:    0.0010306
Arg of perigee:   288.3838 deg
Mean anomaly:     071.6201 deg
Mean motion:   13.72755553 rev/day
Decay rate:        5.6e-07 rev/day^2
Epoch rev:           88838
Checksum:              313

Satellite: FO-20
Catalog number: 20480
Epoch time:      05075.46040806
Element set:    0850
Inclination:      099.0215 deg
RA of node:       267.3153 deg
Eccentricity:    0.0540928
Arg of perigee:   089.8592 deg
Mean anomaly:     276.4457 deg
Mean motion:   12.83345501 rev/day
Decay rate:       -2.0e-07 rev/day^2
Epoch rev:           70760
Checksum:              297

Satellite: RS-12/13
Catalog number: 21089
Epoch time:      05075.71666911
Element set:    0864
Inclination:      082.9269 deg
RA of node:       339.5225 deg
Eccentricity:    0.0028948
Arg of perigee:   340.4502 deg
Mean anomaly:     019.5554 deg
Mean motion:   13.74448516 rev/day
Decay rate:        5.5e-07 rev/day^2
Epoch rev:           70779
Checksum:              336

Satellite: RS-15
Catalog number: 23439
Epoch time:      05075.89907567
Element set:    0889
Inclination:      064.8154 deg
RA of node:       256.8048 deg
Eccentricity:    0.0161491
Arg of perigee:   332.4774 deg
Mean anomaly:     026.7670 deg
Mean motion:   11.27551327 rev/day
Decay rate:       -3.9e-07 rev/day^2
Epoch rev:           42098
Checksum:              342

Satellite: FO-29
Catalog number: 24278
Epoch time:      05075.17551735
Element set:    0919
Inclination:      098.5591 deg
RA of node:       137.2569 deg
Eccentricity:    0.0351280
Arg of perigee:   057.4238 deg
Mean anomaly:     306.0302 deg
Mean motion:   13.52909639 rev/day
Decay rate:       -1.9e-07 rev/day^2
Epoch rev:           42361
Checksum:              321

Satellite: SO-33
Catalog number: 25509
Epoch time:      05075.41562987
Element set:    0324
Inclination:      031.4279 deg
RA of node:       196.9664 deg
Eccentricity:    0.0355919
Arg of perigee:   075.0230 deg
Mean anomaly:     288.9477 deg
Mean motion:   14.27970345 rev/day
Decay rate:       1.00e-06 rev/day^2
Epoch rev:           33355
Checksum:              328

Satellite: AO-40
Catalog number: 26609
Epoch time:      05072.58037499
Element set:    0512
Inclination:      008.3627 deg
RA of node:       315.4409 deg
Eccentricity:    0.7954469
Arg of perigee:   017.1171 deg
Mean anomaly:     358.9910 deg
Mean motion:   01.25587285 rev/day
Decay rate:      -3.36e-06 rev/day^2
Epoch rev:           02006
Checksum:              317



Read previous mail | Read next mail


 14.07.2026 08:06:25lGo back Go up